Lynchburg, VA

8:36 AM EST on December 13, 2019 (GMT -0500)
Lynchburg Regional-Glenn

Weather History for KLYH - November, 2019

Change the Weather History Date:

Tuesday, November 12, 2019

  Actual Average Record
Temperature  
Mean Temperature 40 °F 48 °F  
Max Temperature 56 °F 60 °F 80 °F (1938)
Min Temperature 24 °F 36 °F 18 °F (1996)
Degree Days  
Heating Degree Days 25 17  
Month to date heating degree days 238 183  
Since 1 July heating degree days 413 530  
Cooling Degree Days 0 0  
Month to date cooling degree days 0 0  
Year to date cooling degree days 1575 1031  
Moisture  
Dew Point 29 °F    
Average Humidity 65    
Maximum Humidity 92    
Minimum Humidity 38    
Precipitation  
Precipitation 0.19 in 0.10 in 2.19 in (1975)
Month to date precipitation 0.19 1.37  
Year to date precipitation 34.67 36.29  
Snow  
Snow T in - - ()
Month to date snowfall T  
Since 1 July snowfall T  
Since 1 September snowfall T  
Snow Depth 0.00 in    
Sea Level Pressure  
Sea Level Pressure 29.99 in    
Wind  
Wind Speed 6 mph (WNW)    
Max Wind Speed 14 mph    
Max Gust Speed 24 mph    
Visibility 10 miles    
Events Rain , Snow    
T = Trace of Precipitation, MM = Missing Value Source: NWS Daily Summary

Daily Weather History Graph

Daily Weather History Graph

Search for Another Location

Airport or City:

Astronomy

Nov. 12, 2019 Rise Set
Actual Time 6:52 AM EST 5:08 PM EST
Civil Twilight 6:24 AM EST 5:36 PM EST
Nautical Twilight 5:53 AM EST 6:07 PM EST
Astronomical Twilight 5:22 AM EST 6:38 PM EST
Moon 5:34 PM EST (11/12) 6:43 AM EST (11/12)
Length of Visible Light 11h 11m
Length of Day
10h 16m
Full, 100% of the Moon is Illuminated
Nov 12
Full
Nov 19
Last Quarter
Nov 26
New
Dec 4
First Quarter
Dec 12
Full

Hourly Weather History & Observations

Time (EST) Temp. Windchill Dew Point Humidity Pressure Visibility Wind Dir Wind Speed Gust Speed Precip Events Conditions
12:54 AM 55.0 °F - 43.0 °F 64% 29.86 in 10.0 mi SSW 5.8 mph - N/A   Overcast
1:54 AM 55.0 °F - 44.1 °F 67% 29.86 in 10.0 mi SW 3.5 mph - 0.00 in   Overcast
2:54 AM 52.0 °F - 44.1 °F 74% 29.84 in 10.0 mi Calm Calm - N/A   Scattered Clouds
3:54 AM 54.0 °F - 45.0 °F 72% 29.83 in 10.0 mi SSW 4.6 mph - 0.00 in Rain Light Rain
4:54 AM 51.1 °F - 48.0 °F 89% 29.83 in 10.0 mi SW 3.5 mph - 0.03 in Rain Light Rain
5:45 AM 50.0 °F - 45.0 °F 83% 29.86 in 10.0 mi Variable 4.6 mph - 0.00 in   Overcast
5:54 AM 50.0 °F - 43.0 °F 77% 29.85 in 10.0 mi WNW 6.9 mph - 0.00 in   Overcast
6:54 AM 48.9 °F - 41.0 °F 74% 29.88 in 10.0 mi WNW 9.2 mph 16.1 mph 0.00 in Rain Light Rain
7:54 AM 43.0 °F 39.5 °F 39.9 °F 89% 29.93 in 10.0 mi West 5.8 mph - 0.03 in Rain Light Rain
8:54 AM 39.9 °F 35.1 °F 36.0 °F 86% 29.97 in 8.0 mi NW 6.9 mph - 0.05 in Rain Light Rain
9:51 AM 37.4 °F 29.8 °F 33.8 °F 87% 29.99 in 9.0 mi WNW 11.5 mph 18.4 mph 0.02 in Snow Light Snow
9:54 AM 37.0 °F 31.0 °F 33.1 °F 86% 30.00 in 7.0 mi NNW 8.1 mph 18.4 mph 0.03 in Snow Light Snow
10:54 AM 36.0 °F 32.1 °F 34.0 °F 93% 30.01 in 7.0 mi West 4.6 mph - 0.04 in Snow Light Snow
11:18 AM 36.0 °F - 35.1 °F 97% 30.01 in 9.0 mi Calm Calm - 0.01 in   Overcast
12:54 PM 39.0 °F 34.0 °F 28.9 °F 67% 30.00 in 10.0 mi Variable 6.9 mph - N/A   Scattered Clouds
1:54 PM 42.1 °F 36.1 °F 26.1 °F 53% 29.99 in 10.0 mi North 10.4 mph 19.6 mph N/A   Partly Cloudy
2:54 PM 42.1 °F 36.6 °F 21.9 °F 45% 30.02 in 10.0 mi NW 9.2 mph - N/A   Clear
3:54 PM 41.0 °F 35.8 °F 17.1 °F 38% 30.04 in 10.0 mi NW 8.1 mph 18.4 mph N/A   Clear
4:54 PM 36.0 °F 30.3 °F 14.0 °F 41% 30.09 in 10.0 mi Variable 6.9 mph - N/A   Clear
5:54 PM 32.0 °F 24.2 °F 10.0 °F 40% 30.14 in 10.0 mi NNW 9.2 mph 17.3 mph N/A   Clear
6:54 PM 30.2 °F 22.6 °F 10.4 °F 44% 30.17 in 10.0 mi North 8.1 mph 19.6 mph N/A   Clear
7:54 PM 28.4 °F 20.4 °F 10.4 °F 47% 30.21 in 10.0 mi Variable 8.1 mph 21.9 mph N/A   Clear
8:54 PM 26.6 °F 18.2 °F 8.6 °F 47% 30.23 in 10.0 mi NNW 8.1 mph 18.4 mph N/A   Clear
9:54 PM 26.6 °F 21.2 °F 8.6 °F 47% 30.26 in 10.0 mi Variable 4.6 mph - N/A   Clear